EW4987 Weather Reports


Display with metric or nautical units.
time (UTC)temp
F
wind
direction
speed
MPH
gust
MPH
rain 1hr
in
rain 24hr
in
rain mn
in
humidity
%
barometer
mb
20260504081519 37 90 0.0 0.0 0.00 0.00 0.00 52 1006.3
20260504044525 48 90 0.0 0.0 0.00 0.00 0.00 42 1006.5
20260504043021 49 90 0.0 0.0 0.00 0.00 0.00 41 1006.5
20260504041516 51 90 0.0 0.0 0.00 0.00 0.00 41 1006.4
20260504040014 53 90 0.0 0.0 0.00 0.00 0.00 35 1006.2
20260504034510 54 90 0.0 0.0 0.00 0.00 0.00 35 1006.2
20260504033003 55 90 0.0 0.0 0.00 0.00 0.00 31 1006.1
20260504031601 56 90 0.0 0.0 0.00 0.00 0.00 30 1005.9
20260504030114 56 88 0.0 0.0 0.00 0.00 0.00 29 1005.8
20260504024551 57 88 0.0 0.0 0.00 0.00 0.00 30 1005.7
20260504023046 57 258 0.0 0.0 0.00 0.00 0.00 31 1005.6
20260504021546 59 258 0.0 0.0 0.00 0.00 0.00 30 1005.5
20260504020038 62 258 0.0 0.0 0.00 0.00 0.00 27 1005.4
20260504014532 64 258 0.0 0.0 0.00 0.00 0.00 25 1005.4
20260504013034 65 258 0.0 0.0 0.00 0.00 0.00 26 1005.4
20260504011523 66 258 0.0 0.0 0.00 0.00 0.00 26 1005.6
20260504010019 66 258 0.0 0.0 0.00 0.00 0.00 19 1005.8
20260504004532 66 258 0.0 0.0 0.00 0.00 0.00 21 1005.8
20260504003010 67 258 0.0 0.0 0.00 0.00 0.00 23 1005.8
20260504001519 68 251 0.0 0.0 0.00 0.00 0.00 16 1006.1
20260504000002 69 251 0.0 0.0 0.00 0.00 0.00 15 1006.2
20260503234557 69 302 0.0 0.0 0.00 0.00 0.00 15 1006.3
20260503233053 69 302 0.0 0.0 0.00 0.00 0.00 16 1006.4
20260503231548 69 302 0.0 0.0 0.00 0.00 0.00 14 1006.5
20260503230104 70 302 0.0 0.0 0.00 0.00 0.00 16 1006.6
20260503224540 70 243 0.0 0.0 0.00 0.00 0.00 16 1006.8
20260503223035 70 323 0.0 0.0 0.00 0.00 0.00 18 1007.0
20260503221534 69 249 0.0 0.0 0.00 0.00 0.00 18 1007.2
20260503220033 69 310 0.0 0.0 0.00 0.00 0.00 16 1007.5
20260503214532 70 119 0.0 0.0 0.00 0.00 0.00 16 1007.7
20260503213029 69 136 0.0 0.0 0.00 0.00 0.00 14 1008.0
20260503211515 69 136 0.0 0.0 0.00 0.00 0.00 15 1008.3
20260503210015 69 306 0.0 0.0 0.00 0.00 0.00 14 1008.5
20260503204505 69 306 0.0 0.0 0.00 0.00 0.00 16 1008.7
20260503203100 69 306 0.0 0.0 0.00 0.00 0.00 18 1008.8
20260503201556 69 306 0.0 0.0 0.00 0.00 0.00 14 1009.0
20260503200051 68 306 0.0 0.0 0.00 0.00 0.00 14 1009.2
20260503194558 68 296 0.0 0.0 0.00 0.00 0.00 15 1009.3
20260503193043 68 252 0.0 0.0 0.00 0.00 0.00 15 1009.6
20260503191538 68 188 0.0 0.0 0.00 0.00 0.00 16 1009.8
20260503190043 69 188 0.0 0.0 0.00 0.00 0.00 18 1010.1
20260503184529 68 203 0.0 0.0 0.00 0.00 0.00 14 1010.3
20260503183026 67 203 0.0 0.0 0.00 0.00 0.00 13 1010.6
20260503181538 67 203 0.0 0.0 0.00 0.00 0.00 13 1010.8
20260503180027 67 203 0.0 0.0 0.00 0.00 0.00 18 1010.9
20260503174511 65 203 0.0 0.0 0.00 0.00 0.00 22 1011.1
20260503173007 63 201 0.0 0.0 0.00 0.00 0.00 33 1011.5
20260503171504 60 201 0.0 0.0 0.00 0.00 0.00 35 1011.8
20260503170113 59 200 0.0 0.0 0.00 0.00 0.00 35 1012.0